AMAZONAS 3

Last updated on Thu Aug 13 2026 00:02:59 GMT+0000 (Coordinated Universal Time)

1 39078U 13006A 26224.55996141 -.00000300 00000+0 00000+0 0 9995 2 39078 0.0497 250.1948 0004201 281.7614 289.6351 1.00271720 45489
UTC large
Height (km)
Speed (km/s)
/
Latitude / Longitude
Inclination (degrees)
Orbital Period (minutes)
Azimuth
Elevation
Range (km)
Doppler Factor

Next 0 passes for location: London (51.5072 / 0.1276)

No passes found over London.
AMAZONAS 3